| time (UTC) | temp F | wind direction | speed MPH | gust MPH | rain 1hr in | rain 24hr in | rain mn in | humidity % | barometer mb |
| 20260508151540 | 52 | 341 | 0.0 | 2.0 | 0.00 | 0.00 | 0.00 | 91 | 1022.3 |
| 20260508043021 | 54 | 355 | 0.0 | 4.0 | 0.00 | 0.00 | 0.00 | 88 | 1020.3 |
| 20260508041518 | 55 | 284 | 1.0 | 4.0 | 0.00 | 0.00 | 0.00 | 87 | 1020.3 |
| 20260508040017 | 56 | 279 | 0.0 | 6.0 | 0.00 | 0.00 | 0.00 | 86 | 1019.9 |
| 20260508034521 | 57 | 311 | 0.0 | 5.0 | 0.00 | 0.00 | 0.00 | 86 | 1019.5 |
| 20260508033027 | 58 | 340 | 0.0 | 2.0 | 0.00 | 0.00 | 0.00 | 88 | 1018.9 |
| 20260508031517 | 60 | 340 | 0.0 | 2.0 | 0.00 | 0.00 | 0.00 | 86 | 1018.6 |
| 20260508030016 | 61 | 340 | 0.0 | 2.0 | 0.00 | 0.00 | 0.00 | 85 | 1018.3 |
| 20260508024515 | 62 | 35 | 0.0 | 2.0 | 0.00 | 0.00 | 0.00 | 82 | 1018.1 |
| 20260508023015 | 63 | 35 | 0.0 | 2.0 | 0.00 | 0.00 | 0.00 | 79 | 1018.1 |
| 20260508021515 | 65 | 301 | 0.0 | 3.0 | 0.00 | 0.00 | 0.00 | 76 | 1018.0 |
| 20260508020015 | 68 | 275 | 1.0 | 3.0 | 0.00 | 0.00 | 0.00 | 70 | 1017.9 |
| 20260508014513 | 71 | 257 | 0.0 | 3.0 | 0.00 | 0.00 | 0.00 | 67 | 1017.8 |
| 20260508013014 | 72 | 258 | 0.0 | 4.0 | 0.00 | 0.00 | 0.00 | 65 | 1017.9 |
| 20260508011511 | 73 | 298 | 1.0 | 4.0 | 0.00 | 0.00 | 0.00 | 64 | 1018.0 |
| 20260508010021 | 72 | 289 | 0.0 | 4.0 | 0.00 | 0.00 | 0.00 | 63 | 1018.0 |
| 20260508004518 | 71 | 309 | 0.0 | 5.0 | 0.00 | 0.00 | 0.00 | 63 | 1018.1 |
| 20260508003008 | 71 | 293 | 3.0 | 9.0 | 0.00 | 0.00 | 0.00 | 63 | 1018.4 |
| 20260508001507 | 71 | 360 | 0.0 | 4.0 | 0.00 | 0.00 | 0.00 | 64 | 1018.4 |
| 20260508000005 | 71 | 348 | 3.0 | 8.0 | 0.00 | 0.00 | 0.00 | 63 | 1018.5 |
| 20260507234504 | 71 | 15 | 2.0 | 8.0 | 0.00 | 0.00 | 0.00 | 63 | 1018.5 |
| 20260507233003 | 71 | 224 | 1.0 | 5.0 | 0.00 | 0.00 | 0.00 | 66 | 1018.8 |
| 20260507231502 | 70 | 242 | 1.0 | 4.0 | 0.00 | 0.00 | 0.00 | 66 | 1018.9 |
| 20260507230111 | 70 | 148 | 1.0 | 8.0 | 0.00 | 0.00 | 0.00 | 70 | 1019.1 |
| 20260507224604 | 69 | 234 | 2.0 | 8.0 | 0.00 | 0.00 | 0.00 | 67 | 1019.2 |
| 20260507223059 | 70 | 127 | 1.0 | 9.0 | 0.00 | 0.00 | 0.00 | 68 | 1019.3 |
| 20260507221559 | 70 | 246 | 5.0 | 12.0 | 0.00 | 0.00 | 0.00 | 66 | 1019.2 |
| 20260507220059 | 71 | 296 | 3.0 | 11.0 | 0.00 | 0.00 | 0.00 | 65 | 1019.1 |
| 20260507214559 | 72 | 250 | 2.0 | 9.0 | 0.00 | 0.00 | 0.00 | 65 | 1018.9 |
| 20260507213058 | 72 | 171 | 2.0 | 11.0 | 0.00 | 0.00 | 0.00 | 68 | 1018.6 |
| 20260507211557 | 73 | 158 | 1.0 | 11.0 | 0.00 | 0.00 | 0.00 | 66 | 1018.7 |
| 20260507204559 | 75 | 254 | 3.0 | 6.0 | 0.00 | 0.00 | 0.00 | 64 | 1018.4 |
| 20260507203058 | 74 | 171 | 2.0 | 7.0 | 0.00 | 0.00 | 0.00 | 64 | 1018.5 |
| 20260507201553 | 74 | 253 | 1.0 | 7.0 | 0.00 | 0.00 | 0.00 | 60 | 1018.5 |
| 20260507200051 | 74 | 315 | 3.0 | 6.0 | 0.00 | 0.00 | 0.00 | 63 | 1018.5 |
| 20260507194549 | 72 | 5 | 2.0 | 6.0 | 0.00 | 0.00 | 0.00 | 66 | 1018.6 |
| 20260507193044 | 71 | 349 | 2.0 | 5.0 | 0.00 | 0.00 | 0.00 | 69 | 1018.9 |
| 20260507191539 | 69 | 18 | 2.0 | 9.0 | 0.00 | 0.00 | 0.00 | 71 | 1019.1 |
| 20260507190036 | 68 | 355 | 2.0 | 6.0 | 0.00 | 0.00 | 0.00 | 72 | 1019.4 |
| 20260507184532 | 67 | 360 | 1.0 | 8.0 | 0.00 | 0.00 | 0.00 | 75 | 1019.4 |
| 20260507183041 | 65 | 329 | 1.0 | 6.0 | 0.00 | 0.00 | 0.00 | 77 | 1019.6 |
| 20260507181529 | 64 | 16 | 2.0 | 5.0 | 0.00 | 0.00 | 0.00 | 78 | 1019.7 |
| 20260507180021 | 62 | 329 | 0.0 | 4.0 | 0.00 | 0.00 | 0.00 | 80 | 1019.9 |
| 20260507174519 | 60 | 15 | 1.0 | 3.0 | 0.00 | 0.00 | 0.00 | 83 | 1020.1 |
| 20260507173012 | 57 | 360 | 0.0 | 3.0 | 0.00 | 0.00 | 0.00 | 88 | 1020.2 |
| 20260507171507 | 55 | 278 | 0.0 | 2.0 | 0.00 | 0.00 | 0.00 | 90 | 1020.3 |
| 20260507170005 | 54 | 13 | 0.0 | 2.0 | 0.00 | 0.00 | 0.00 | 92 | 1020.4 |
| 20260507164501 | 53 | 10 | 0.0 | 3.0 | 0.00 | 0.00 | 0.00 | 92 | 1020.5 |
| 20260507163101 | 53 | 300 | 0.0 | 2.0 | 0.00 | 0.00 | 0.00 | 92 | 1020.6 |
| 20260507161602 | 52 | 300 | 0.0 | 2.0 | 0.00 | 0.00 | 0.00 | 92 | 1020.7 |
| 20260507160058 | 52 | 300 | 0.0 | 2.0 | 0.00 | 0.00 | 0.00 | 94 | 1020.8 |
| 20260507154556 | 51 | 265 | 0.0 | 2.0 | 0.00 | 0.00 | 0.00 | 93 | 1020.7 |
| 20260507153102 | 51 | 265 | 1.0 | 6.0 | 0.00 | 0.00 | 0.00 | 95 | 1020.7 |